Location: *
(45.0500°N, 12.0500°E)
Time: 17:23:30
(UTC+00:00)

Cosmos 2278 - Pass Details

Date: 09 April 2020
Orbit: 840 x 853 km, 71.1° (Epoch: 02 June)

Event Time Altitude Azimuth Distance (km) Brightness Sun altitude
Rises 20:24:08 0° 339° (NNW) 3,405 7.9 -24.8°
Reaches altitude 10° 20:26:45 10° 346° (NNW) 2,468 6.9 -25.1°
Maximum altitude 20:32:04 40° 56° (NE) 1,224 4.4 -25.8°
Enters shadow 20:32:16 40° 61° (ENE) 1,226 4.3 -25.8°
